Regional Weather Roundup
Issued by NWS Cleveland, OH

Home | Current Version | Previous Version | Graphics & Text | Print | Product List | Glossary On
Versions: 1 2 3 4 5 6 7 8 9 10 11 12 13 14 15 16 17 18 19 20 21 22 23 24 25 26 27 28 29 30 31 32 33 34 35 36 37 38 39 40 41 42 43 44 45 46 47 48 49 50
000
ASUS41 KCLE 242310
RWRCLE
OHIO REGIONAL WEATHER ROUNDUP
NATIONAL WEATHER SERVICE CLEVELAND, OH
600 PM EST FRI FEB 24 2017

NOTE: "FAIR" INDICATES FEW OR NO CLOUDS BELOW 12,000 FEET WITH NO
SIGNIFICANT WEATHER AND/OR OBSTRUCTIONS TO VISIBILITY.

OHZ001>008-015>018-024>027-034-035-043-044-250000-
   NORTHWEST OHIO

CITY           SKY/WX    TMP DP  RH WIND       PRES   REMARKS
DEFIANCE       CLOUDY    64  52  64 SW9       29.49R
FINDLAY        TSTM      63  55  75 S14       29.50F
TOLEDO EXPRESS CLOUDY    64  55  72 S9G25     29.48R
TOLEDO EXEC    LGT RAIN  64  57  78 S16       29.48F
LIMA           TSTM      65  56  72 SW22G32   29.55R
$$

OHZ009>014-019>023-028>033-038-089-250000-
   NORTHEAST OHIO

CITY           SKY/WX    TMP DP  RH WIND       PRES   REMARKS
CLE-HOPKINS    MOCLDY    74  50  42 S12       29.60R
CLE-LAKEFRONT  CLOUDY    74  50  42 S8G20     29.57R
CUY CO. ARPT   MOCLDY    73  52  46 S14       29.60R
LORAIN-ELYRIA  MOCLDY    70  51  51 SW10      29.57F
ASHTABULA      CLOUDY    71  49  45 SW7       29.61R
AKRON-CANTON   MOCLDY    71  48  43 SW13      29.61R
WOOSTER        PTCLDY    68  50  52 SW7       29.61R
MANSFIELD      CLOUDY    70  51  51 S13       29.59S
YOUNGSTOWN     CLOUDY    72  48  42 S6        29.61R
$$

OHZ042-051>053-060>062-070>072-077>081-250000-
  SOUTHWEST OHIO

CITY           SKY/WX    TMP DP  RH WIND       PRES   REMARKS
CINC-COVINGTON MOCLDY    74  51  44 S15G24    29.54F
CINC-LUNKEN    MOCLDY    74  53  48 S13       29.55S
HAMILTON       MOCLDY    75  53  46 S7        29.54F
DAYTON         CLOUDY    72  51  47 S9        29.54F
WRIGHT-PAT AFB CLOUDY    73  51  46 S9        29.53F
DAYTON GENERAL CLOUDY    73  51  46 S10       29.54F
WILMINGTON     PTCLDY    71  52  50 S14       29.57S
$$

OHZ036-037-039>041-045>050-054>059-063>069-073>076-082>088-250000-
  CENTRAL AND SOUTHEAST OHIO

CITY           SKY/WX    TMP DP  RH WIND       PRES   REMARKS
COLUMBUS       CLOUDY    76  51  41 SW12      29.58S
OSU AIRPORT    CLOUDY    72  52  49 SW13      29.57F
BOLTON FIELD   PTCLDY    72  54  53 SW13G18   29.59S
RICKENBACK AFB CLOUDY    72  51  47 SW9       29.58S
NEWARK         CLEAR     72  50  45 SW7       29.58S
MARION         CLOUDY    70  51  51 S13       29.56F
LANCASTER      PTCLDY    74  49  41 S8        29.59S
ZANESVILLE     CLEAR     73  47  39 SW6       29.60R
NEW PHILLY     NOT AVBL
$$



USA.gov is the U.S. government's official web portal to all federal, state and local government web resources and services.